Regional Weather Roundup
Issued by NWS Portland, ME

Current Version | Previous Version | Text Only | Print | Product List | Glossary Off
Versions: 1 2 3 4 5 6 7 8 9 10 11 12 13 14 15 16 17 18 19 20 21 22 23 24 25 26 27 28 29 30 31 32 33 34 35 36 37 38 39 40 41 42 43 44 45 46 47 48 49 50
000 ASUS41 KGYX 231405 RWRGYX WEATHER ROUNDUP FOR MAINE AND NEW HAMPSHIRE NATIONAL WEATHER SERVICE GRAY ME 1000 AM EDT WED AUG 23 2017 MEZ002-005-006-010-012-015-018-020-021-024-026-027-029-231500- MAINE CITY SKY/WX TMP DP RH WIND PRES REMARKS PORTLAND CLOUDY 78 66 66 SW13G21 29.69R SANFORD MOSUNNY 77 65 66 W13G22 29.72R BAR HARBOR CLOUDY 71 68 90 S13 29.67S WISCASSET CLOUDY 74 69 85 S9 29.69R ROCKLAND CLOUDY 71 69 93 W9 29.68R FRYEBURG MOSUNNY 74 55 51 W8G17 29.70R LEWISTONAUBURN MOSUNNY 76 67 73 SW10 29.68R AUGUSTA CLOUDY 72 68 87 SW9 29.68R WATERVILLE CLOUDY 74 69 85 SW6 29.64R BANGOR PTSUNNY 78 67 68 SW9 29.65R GREENVILLE N/A 68 56 65 VRB6 29.66R MILLINOCKET PTSUNNY 73 57 57 W14G22 29.64R HOULTON CLOUDY 70 62 76 SW9 29.60R PRESQUE ISLE CLOUDY 73 63 70 SW12G17 29.59R FRENCHVILLE MOSUNNY 71 57 61 W14G24 29.56R CARIBOU PTSUNNY 74 63 68 SW13G22 29.57R $$ NHZ002-005-008-009-011-012-014-231500- NEW HAMPSHIRE CITY SKY/WX TMP DP RH WIND PRES REMARKS PORTSMOUTH PTSUNNY 77 61 58 W13 29.71R ROCHESTER MOSUNNY 76 62 62 VRB7 29.72R NASHUA MOSUNNY 75 62 64 VRB7 29.76R MANCHESTER PTSUNNY 75 53 46 W7 29.74R CONCORD MOSUNNY 75 58 55 W14G24 29.75R LACONIA PTSUNNY 71 49 45 SW15 29.75R PLYMOUTH FAIR 68 51 54 W12G21 29.74R BERLIN CLOUDY 69 51 52 W9G23 29.74R WHITEFIELD CLOUDY 68 53 58 W8 29.76R JAFFREY MOSUNNY 70 55 59 W14 29.81R KEENE N/A N/A N/A N/A MISG N/A LEBANON CLOUDY 70 53 54 CALM 29.77R MT WASHINGTON FOG 41 41 100 W49G58 N/A VSB 1/16 $$ VTZ005-007-008-231500- VERMONT CITY SKY/WX TMP DP RH WIND PRES REMARKS ST JOHNSBURY N/A 67 53 61 MISG 29.74R MONTPELIER MOSUNNY 65 53 65 W12 29.81R BURLINGTON PTSUNNY 70 50 49 W8 29.77R $$ MAZ007-012-024-CTZ003-RIZ002-NYZ038-NYZ072-231500- SOUTHERN NEW ENGLAND AND NY CITY SKY/WX TMP DP RH WIND PRES REMARKS BOSTON PTSUNNY 79 67 66 NW14G20 29.75R WORCESTER MOSUNNY 71 55 56 W10 29.81R NANTUCKET CLOUDY 73 72 96 SW12 29.80R PROVIDENCE CLOUDY 78 70 76 NW8 29.78R HARTFORD PTSUNNY 75 55 49 NW12G21 29.81R ALBANY PTSUNNY 70 55 59 NW15G22 29.84R NEW YORK CITY PTSUNNY 76 58 53 NW14 29.82R $$ ANZ081-ANZ082-ANZ150-NHZ014-MEZ023>029-231500- COASTAL MARINE OBSERVATIONS STATION/POSITION TIME TEMP WIND PRES WAVE AIR SEA DIR/SP/G HT/PER (UTC) (F) (DEG/KT/KT) (MB) (FT/S) MOUNT DESERT ROC 1400 60 190/ 20/ 21 1005.3R MATINICUS ROCK 1300 63 220/ 23/ 24 1004.6R ISLE OF SHOALS 1300 73 230/ 14/ 15 1005.7R JEFFREYS LEDGE 1306 63 N/A 4/ 6 CASHES LEDGE BUO 1250 70 68 1005.6 7/ 7 GEORGES BANK BUO 1250 71 65 1010.9 6/ 7 $$ .............KEY.............. WCI - WIND CHILL TC - TEMPERATURE IN CELSIUS VSB - VISIBILITY IN MILES HX - HEAT INDEX FAIR- INDICATES FEW OR NO CLOUDS BELOW 12,000 FT, WITH NO SIGNIFICANT WEATHER AND/OR OBSTRUCTIONS TO VISIBILITY.

USA.gov is the U.S. government's official web portal to all federal, state and local government web resources and services.